Location: Ab? ar R?sh Ba?r?
(24.1861°N, 32.8847°E)
Time: 09:58:55
(UTC+00:00)

Cosmos 2322 Rocket - Pass Details

Date: 24 October 2021
Orbit: 832 x 851 km, 71.0° (Epoch: 04 December)

Event Time Altitude Azimuth Distance (km) Brightness Sun altitude
Rises 16:15:33 0° 220° (SW) 3,363 6.1 -14.6°
Reaches altitude 10° 16:18:13 10° 230° (SW) 2,431 5.5 -15.2°
Maximum altitude 16:23:09 32° 292° (WNW) 1,389 3.9 -16.3°
Drops below altitude 10° 16:28:07 10° 355° (N) 2,439 4.6 -17.4°
Sets 16:30:49 0° 5° (N) 3,376 5.2 -18.0°
